User: anonymous   Login
Location: Mesa Vista Observatory
(35.5777°N, 105.6987°W)
Time: 02:45:38
(UTC-06:00)
Language:

N. Korean satellite - Orbit

View from above orbital plane
View from above orbital plane
View from above satellite
View from above satellite

Ground track
Ground track

The orbit data is extracted from the following two-line orbital elements,

1 39026U 12072A   19198.93977426 +.00000960 +00000-0 +37243-4 0  9995
2 39026 097.2107 201.1400 0038043 000.1904 359.9343 15.27868551366007
Epoch (UTC): 17 July 2019 22:33:16
Eccentricity: 0.0038043
inclination: 97.2107°
perigee height: 456 km
apogee height: 508 km
right ascension of ascending node: 201.1400°
argument of perigee: 0.1904°
revolutions per day: 15.27868551
mean anomaly at epoch: 359.9343°
orbit number at epoch: 36600

The dashed part of the orbit path shows where the satellite is in the earth's shadow,  

DLR